<?xml version="1.0" encoding="UTF-8" standalone="no" ?>
<gpx xmlns="http://www.topografix.com/GPX/1/1" xmlns:xsi="http://www.w3.org/2001/XMLSchema-instance" xsi:schemaLocation="http://www.topografix.com/GPX/1/1 http://www.topografix.com/GPX/1/1/gpx.xsd" version="1.1" creator="VisuGPX - https://www.visugpx.com">
  <metadata>
    <name>semalens</name>
    <desc><![CDATA[randonnée autour de semalens]]></desc>
  </metadata>
  <trk>
    <name><![CDATA[Pedestre]]></name>
    <trkseg>
      <trkpt lat="43.58921" lon="2.10987">
        <ele>162</ele>
        <time>2011-03-24T06:07:54.000Z</time>
      </trkpt>
      <trkpt lat="43.58883" lon="2.11046">
        <ele>162</ele>
        <time>2011-03-24T06:07:54.000Z</time>
      </trkpt>
      <trkpt lat="43.58933" lon="2.1116">
        <ele>159</ele>
        <time>2011-03-24T06:07:54.000Z</time>
      </trkpt>
      <trkpt lat="43.58947" lon="2.11222">
        <ele>159</ele>
        <time>2011-03-24T06:07:54.000Z</time>
      </trkpt>
      <trkpt lat="43.59124" lon="2.11147">
        <ele>158</ele>
        <time>2011-03-24T06:07:54.000Z</time>
      </trkpt>
      <trkpt lat="43.59144" lon="2.11178">
        <ele>158</ele>
        <time>2011-03-24T06:07:54.000Z</time>
      </trkpt>
      <trkpt lat="43.59227" lon="2.11147">
        <ele>158</ele>
        <time>2011-03-24T06:07:54.000Z</time>
      </trkpt>
      <trkpt lat="43.59236" lon="2.11119">
        <ele>158</ele>
        <time>2011-03-24T06:07:54.000Z</time>
      </trkpt>
      <trkpt lat="43.59256" lon="2.11088">
        <ele>158</ele>
        <time>2011-03-24T06:07:54.000Z</time>
      </trkpt>
      <trkpt lat="43.59252" lon="2.11023">
        <ele>157</ele>
        <time>2011-03-24T06:07:54.000Z</time>
      </trkpt>
      <trkpt lat="43.59256" lon="2.10936">
        <ele>157</ele>
        <time>2011-03-24T06:07:54.000Z</time>
      </trkpt>
      <trkpt lat="43.5924" lon="2.10915">
        <ele>157</ele>
        <time>2011-03-24T06:07:54.000Z</time>
      </trkpt>
      <trkpt lat="43.59263" lon="2.10865">
        <ele>158</ele>
        <time>2011-03-24T06:07:54.000Z</time>
      </trkpt>
      <trkpt lat="43.59287" lon="2.10819">
        <ele>160</ele>
        <time>2011-03-24T06:07:54.000Z</time>
      </trkpt>
      <trkpt lat="43.59314" lon="2.108">
        <ele>160</ele>
        <time>2011-03-24T06:07:54.000Z</time>
      </trkpt>
      <trkpt lat="43.59337" lon="2.10738">
        <ele>162</ele>
        <time>2011-03-24T06:07:54.000Z</time>
      </trkpt>
      <trkpt lat="43.59307" lon="2.10692">
        <ele>163</ele>
        <time>2011-03-24T06:07:54.000Z</time>
      </trkpt>
      <trkpt lat="43.59282" lon="2.10627">
        <ele>165</ele>
        <time>2011-03-24T06:07:54.000Z</time>
      </trkpt>
      <trkpt lat="43.59258" lon="2.10572">
        <ele>166</ele>
        <time>2011-03-24T06:07:54.000Z</time>
      </trkpt>
      <trkpt lat="43.59255" lon="2.1051">
        <ele>166</ele>
        <time>2011-03-24T06:07:54.000Z</time>
      </trkpt>
      <trkpt lat="43.59275" lon="2.10364">
        <ele>172</ele>
        <time>2011-03-24T06:07:54.000Z</time>
      </trkpt>
      <trkpt lat="43.59318" lon="2.10336">
        <ele>175</ele>
        <time>2011-03-24T06:07:54.000Z</time>
      </trkpt>
      <trkpt lat="43.59403" lon="2.10157">
        <ele>191</ele>
        <time>2011-03-24T06:07:54.000Z</time>
      </trkpt>
      <trkpt lat="43.59351" lon="2.10104">
        <ele>194</ele>
        <time>2011-03-24T06:07:54.000Z</time>
      </trkpt>
      <trkpt lat="43.59398" lon="2.09959">
        <ele>196</ele>
        <time>2011-03-24T06:07:54.000Z</time>
      </trkpt>
      <trkpt lat="43.59422" lon="2.09928">
        <ele>196</ele>
        <time>2011-03-24T06:07:54.000Z</time>
      </trkpt>
      <trkpt lat="43.5949" lon="2.09829">
        <ele>196</ele>
        <time>2011-03-24T06:07:54.000Z</time>
      </trkpt>
      <trkpt lat="43.59568" lon="2.0972">
        <ele>192</ele>
        <time>2011-03-24T06:07:54.000Z</time>
      </trkpt>
      <trkpt lat="43.59604" lon="2.09692">
        <ele>189</ele>
        <time>2011-03-24T06:07:54.000Z</time>
      </trkpt>
      <trkpt lat="43.5964" lon="2.09674">
        <ele>187</ele>
        <time>2011-03-24T06:07:54.000Z</time>
      </trkpt>
      <trkpt lat="43.597" lon="2.09608">
        <ele>185</ele>
        <time>2011-03-24T06:07:54.000Z</time>
      </trkpt>
      <trkpt lat="43.59795" lon="2.09617">
        <ele>182</ele>
        <time>2011-03-24T06:07:54.000Z</time>
      </trkpt>
      <trkpt lat="43.59882" lon="2.0962">
        <ele>185</ele>
        <time>2011-03-24T06:07:54.000Z</time>
      </trkpt>
      <trkpt lat="43.59914" lon="2.09583">
        <ele>186</ele>
        <time>2011-03-24T06:07:54.000Z</time>
      </trkpt>
      <trkpt lat="43.59936" lon="2.09586">
        <ele>187</ele>
        <time>2011-03-24T06:07:54.000Z</time>
      </trkpt>
      <trkpt lat="43.60006" lon="2.09657">
        <ele>187</ele>
        <time>2011-03-24T06:07:54.000Z</time>
      </trkpt>
      <trkpt lat="43.60071" lon="2.09591">
        <ele>193</ele>
        <time>2011-03-24T06:07:54.000Z</time>
      </trkpt>
      <trkpt lat="43.60129" lon="2.09545">
        <ele>200</ele>
        <time>2011-03-24T06:07:54.000Z</time>
      </trkpt>
      <trkpt lat="43.60186" lon="2.09532">
        <ele>206</ele>
        <time>2011-03-24T06:07:54.000Z</time>
      </trkpt>
      <trkpt lat="43.60226" lon="2.09486">
        <ele>213</ele>
        <time>2011-03-24T06:07:54.000Z</time>
      </trkpt>
      <trkpt lat="43.60275" lon="2.09439">
        <ele>221</ele>
        <time>2011-03-24T06:07:54.000Z</time>
      </trkpt>
      <trkpt lat="43.60309" lon="2.09402">
        <ele>226</ele>
        <time>2011-03-24T06:07:54.000Z</time>
      </trkpt>
      <trkpt lat="43.60361" lon="2.09439">
        <ele>227</ele>
        <time>2011-03-24T06:07:54.000Z</time>
      </trkpt>
      <trkpt lat="43.6039" lon="2.09343">
        <ele>236</ele>
        <time>2011-03-24T06:07:54.000Z</time>
      </trkpt>
      <trkpt lat="43.60412" lon="2.09237">
        <ele>243</ele>
        <time>2011-03-24T06:07:54.000Z</time>
      </trkpt>
      <trkpt lat="43.60425" lon="2.09185">
        <ele>247</ele>
        <time>2011-03-24T06:07:54.000Z</time>
      </trkpt>
      <trkpt lat="43.60369" lon="2.09092">
        <ele>245</ele>
        <time>2011-03-24T06:07:54.000Z</time>
      </trkpt>
      <trkpt lat="43.60432" lon="2.09077">
        <ele>253</ele>
        <time>2011-03-24T06:07:54.000Z</time>
      </trkpt>
      <trkpt lat="43.6047" lon="2.0907">
        <ele>260</ele>
        <time>2011-03-24T06:07:54.000Z</time>
      </trkpt>
      <trkpt lat="43.60497" lon="2.09036">
        <ele>264</ele>
        <time>2011-03-24T06:07:54.000Z</time>
      </trkpt>
      <trkpt lat="43.6055" lon="2.08959">
        <ele>274</ele>
        <time>2011-03-24T06:07:54.000Z</time>
      </trkpt>
      <trkpt lat="43.60593" lon="2.08927">
        <ele>279</ele>
        <time>2011-03-24T06:07:54.000Z</time>
      </trkpt>
      <trkpt lat="43.60627" lon="2.08961">
        <ele>286</ele>
        <time>2011-03-24T06:07:54.000Z</time>
      </trkpt>
      <trkpt lat="43.60573" lon="2.09033">
        <ele>279</ele>
        <time>2011-03-24T06:07:54.000Z</time>
      </trkpt>
      <trkpt lat="43.60602" lon="2.09079">
        <ele>280</ele>
        <time>2011-03-24T06:07:54.000Z</time>
      </trkpt>
      <trkpt lat="43.60591" lon="2.09156">
        <ele>272</ele>
        <time>2011-03-24T06:07:54.000Z</time>
      </trkpt>
      <trkpt lat="43.60538" lon="2.09327">
        <ele>256</ele>
        <time>2011-03-24T06:07:54.000Z</time>
      </trkpt>
      <trkpt lat="43.6052" lon="2.09432">
        <ele>242</ele>
        <time>2011-03-24T06:07:54.000Z</time>
      </trkpt>
      <trkpt lat="43.60594" lon="2.09419">
        <ele>242</ele>
        <time>2011-03-24T06:07:54.000Z</time>
      </trkpt>
      <trkpt lat="43.60677" lon="2.09462">
        <ele>231</ele>
        <time>2011-03-24T06:07:54.000Z</time>
      </trkpt>
      <trkpt lat="43.6074" lon="2.09502">
        <ele>223</ele>
        <time>2011-03-24T06:07:54.000Z</time>
      </trkpt>
      <trkpt lat="43.60785" lon="2.09517">
        <ele>217</ele>
        <time>2011-03-24T06:07:54.000Z</time>
      </trkpt>
      <trkpt lat="43.60795" lon="2.0957">
        <ele>210</ele>
        <time>2011-03-24T06:07:54.000Z</time>
      </trkpt>
      <trkpt lat="43.60763" lon="2.09641">
        <ele>203</ele>
        <time>2011-03-24T06:07:54.000Z</time>
      </trkpt>
      <trkpt lat="43.60806" lon="2.09684">
        <ele>195</ele>
        <time>2011-03-24T06:07:54.000Z</time>
      </trkpt>
      <trkpt lat="43.60761" lon="2.09712">
        <ele>194</ele>
        <time>2011-03-24T06:07:54.000Z</time>
      </trkpt>
      <trkpt lat="43.6097" lon="2.09767">
        <ele>182</ele>
        <time>2011-03-24T06:07:54.000Z</time>
      </trkpt>
      <trkpt lat="43.61067" lon="2.09708">
        <ele>179</ele>
        <time>2011-03-24T06:07:54.000Z</time>
      </trkpt>
      <trkpt lat="43.6117" lon="2.0971">
        <ele>178</ele>
        <time>2011-03-24T06:07:54.000Z</time>
      </trkpt>
      <trkpt lat="43.6117" lon="2.09621">
        <ele>180</ele>
        <time>2011-03-24T06:07:54.000Z</time>
      </trkpt>
      <trkpt lat="43.61246" lon="2.09555">
        <ele>181</ele>
        <time>2011-03-24T06:07:54.000Z</time>
      </trkpt>
      <trkpt lat="43.61273" lon="2.0954">
        <ele>182</ele>
        <time>2011-03-24T06:07:54.000Z</time>
      </trkpt>
      <trkpt lat="43.61475" lon="2.0953">
        <ele>173</ele>
        <time>2011-03-24T06:07:54.000Z</time>
      </trkpt>
      <trkpt lat="43.61525" lon="2.09517">
        <ele>164</ele>
        <time>2011-03-24T06:07:54.000Z</time>
      </trkpt>
      <trkpt lat="43.61489" lon="2.09499">
        <ele>169</ele>
        <time>2011-03-24T06:07:54.000Z</time>
      </trkpt>
      <trkpt lat="43.61383" lon="2.09298">
        <ele>185</ele>
        <time>2011-03-24T06:07:54.000Z</time>
      </trkpt>
      <trkpt lat="43.61306" lon="2.09178">
        <ele>189</ele>
        <time>2011-03-24T06:07:54.000Z</time>
      </trkpt>
      <trkpt lat="43.61265" lon="2.09039">
        <ele>200</ele>
        <time>2011-03-24T06:07:54.000Z</time>
      </trkpt>
      <trkpt lat="43.6122" lon="2.08934">
        <ele>208</ele>
        <time>2011-03-24T06:07:54.000Z</time>
      </trkpt>
      <trkpt lat="43.61173" lon="2.08869">
        <ele>213</ele>
        <time>2011-03-24T06:07:54.000Z</time>
      </trkpt>
      <trkpt lat="43.61094" lon="2.08808">
        <ele>219</ele>
        <time>2011-03-24T06:07:54.000Z</time>
      </trkpt>
      <trkpt lat="43.60952" lon="2.08669">
        <ele>223</ele>
        <time>2011-03-24T06:07:54.000Z</time>
      </trkpt>
      <trkpt lat="43.60885" lon="2.0862">
        <ele>222</ele>
        <time>2011-03-24T06:07:54.000Z</time>
      </trkpt>
      <trkpt lat="43.60763" lon="2.08577">
        <ele>226</ele>
        <time>2011-03-24T06:07:54.000Z</time>
      </trkpt>
      <trkpt lat="43.60653" lon="2.08565">
        <ele>225</ele>
        <time>2011-03-24T06:07:54.000Z</time>
      </trkpt>
      <trkpt lat="43.60545" lon="2.08591">
        <ele>226</ele>
        <time>2011-03-24T06:07:54.000Z</time>
      </trkpt>
      <trkpt lat="43.60475" lon="2.08591">
        <ele>222</ele>
        <time>2011-03-24T06:07:54.000Z</time>
      </trkpt>
      <trkpt lat="43.60336" lon="2.08653">
        <ele>217</ele>
        <time>2011-03-24T06:07:54.000Z</time>
      </trkpt>
      <trkpt lat="43.6026" lon="2.08657">
        <ele>217</ele>
        <time>2011-03-24T06:07:54.000Z</time>
      </trkpt>
      <trkpt lat="43.60188" lon="2.08617">
        <ele>218</ele>
        <time>2011-03-24T06:07:54.000Z</time>
      </trkpt>
      <trkpt lat="43.60145" lon="2.08543">
        <ele>215</ele>
        <time>2011-03-24T06:07:54.000Z</time>
      </trkpt>
      <trkpt lat="43.60064" lon="2.08466">
        <ele>217</ele>
        <time>2011-03-24T06:07:54.000Z</time>
      </trkpt>
      <trkpt lat="43.60068" lon="2.08283">
        <ele>221</ele>
        <time>2011-03-24T06:07:54.000Z</time>
      </trkpt>
      <trkpt lat="43.59996" lon="2.08216">
        <ele>229</ele>
        <time>2011-03-24T06:07:54.000Z</time>
      </trkpt>
      <trkpt lat="43.59872" lon="2.0813">
        <ele>243</ele>
        <time>2011-03-24T06:07:54.000Z</time>
      </trkpt>
      <trkpt lat="43.598" lon="2.08071">
        <ele>245</ele>
        <time>2011-03-24T06:07:54.000Z</time>
      </trkpt>
      <trkpt lat="43.59757" lon="2.0805">
        <ele>247</ele>
        <time>2011-03-24T06:07:54.000Z</time>
      </trkpt>
      <trkpt lat="43.59692" lon="2.081">
        <ele>246</ele>
        <time>2011-03-24T06:07:54.000Z</time>
      </trkpt>
      <trkpt lat="43.59677" lon="2.08097">
        <ele>247</ele>
        <time>2011-03-24T06:07:54.000Z</time>
      </trkpt>
      <trkpt lat="43.59677" lon="2.0806">
        <ele>250</ele>
        <time>2011-03-24T06:07:54.000Z</time>
      </trkpt>
      <trkpt lat="43.59632" lon="2.08016">
        <ele>255</ele>
        <time>2011-03-24T06:07:54.000Z</time>
      </trkpt>
      <trkpt lat="43.59546" lon="2.07983">
        <ele>265</ele>
        <time>2011-03-24T06:07:54.000Z</time>
      </trkpt>
      <trkpt lat="43.59463" lon="2.0798">
        <ele>278</ele>
        <time>2011-03-24T06:07:54.000Z</time>
      </trkpt>
      <trkpt lat="43.59431" lon="2.07968">
        <ele>280</ele>
        <time>2011-03-24T06:07:54.000Z</time>
      </trkpt>
      <trkpt lat="43.59416" lon="2.07915">
        <ele>290</ele>
        <time>2011-03-24T06:07:54.000Z</time>
      </trkpt>
      <trkpt lat="43.59377" lon="2.07885">
        <ele>291</ele>
        <time>2011-03-24T06:07:54.000Z</time>
      </trkpt>
      <trkpt lat="43.59337" lon="2.07814">
        <ele>295</ele>
        <time>2011-03-24T06:07:54.000Z</time>
      </trkpt>
      <trkpt lat="43.59289" lon="2.07792">
        <ele>292</ele>
        <time>2011-03-24T06:07:54.000Z</time>
      </trkpt>
      <trkpt lat="43.59253" lon="2.07765">
        <ele>294</ele>
        <time>2011-03-24T06:07:54.000Z</time>
      </trkpt>
      <trkpt lat="43.59175" lon="2.07771">
        <ele>300</ele>
        <time>2011-03-24T06:07:54.000Z</time>
      </trkpt>
      <trkpt lat="43.5913" lon="2.07756">
        <ele>307</ele>
        <time>2011-03-24T06:07:54.000Z</time>
      </trkpt>
      <trkpt lat="43.59078" lon="2.07716">
        <ele>312</ele>
        <time>2011-03-24T06:07:54.000Z</time>
      </trkpt>
      <trkpt lat="43.59042" lon="2.07636">
        <ele>315</ele>
        <time>2011-03-24T06:07:54.000Z</time>
      </trkpt>
      <trkpt lat="43.59118" lon="2.07533">
        <ele>317</ele>
        <time>2011-03-24T06:07:54.000Z</time>
      </trkpt>
      <trkpt lat="43.59192" lon="2.07437">
        <ele>322</ele>
        <time>2011-03-24T06:07:54.000Z</time>
      </trkpt>
      <trkpt lat="43.59255" lon="2.07431">
        <ele>331</ele>
        <time>2011-03-24T06:07:54.000Z</time>
      </trkpt>
      <trkpt lat="43.59318" lon="2.07369">
        <ele>330</ele>
        <time>2011-03-24T06:07:54.000Z</time>
      </trkpt>
      <trkpt lat="43.59347" lon="2.07304">
        <ele>325</ele>
        <time>2011-03-24T06:07:54.000Z</time>
      </trkpt>
      <trkpt lat="43.59388" lon="2.0734">
        <ele>309</ele>
        <time>2011-03-24T06:07:54.000Z</time>
      </trkpt>
      <trkpt lat="43.59418" lon="2.07377">
        <ele>297</ele>
        <time>2011-03-24T06:07:54.000Z</time>
      </trkpt>
      <trkpt lat="43.59398" lon="2.07499">
        <ele>305</ele>
        <time>2011-03-24T06:07:54.000Z</time>
      </trkpt>
      <trkpt lat="43.59447" lon="2.07587">
        <ele>303</ele>
        <time>2011-03-24T06:07:54.000Z</time>
      </trkpt>
      <trkpt lat="43.59486" lon="2.07588">
        <ele>300</ele>
        <time>2011-03-24T06:07:54.000Z</time>
      </trkpt>
      <trkpt lat="43.59505" lon="2.07605">
        <ele>300</ele>
        <time>2011-03-24T06:07:54.000Z</time>
      </trkpt>
      <trkpt lat="43.59523" lon="2.07657">
        <ele>302</ele>
        <time>2011-03-24T06:07:54.000Z</time>
      </trkpt>
      <trkpt lat="43.59549" lon="2.07721">
        <ele>297</ele>
        <time>2011-03-24T06:07:54.000Z</time>
      </trkpt>
      <trkpt lat="43.59565" lon="2.07752">
        <ele>291</ele>
        <time>2011-03-24T06:07:54.000Z</time>
      </trkpt>
      <trkpt lat="43.59577" lon="2.07781">
        <ele>285</ele>
        <time>2011-03-24T06:07:54.000Z</time>
      </trkpt>
      <trkpt lat="43.59559" lon="2.07863">
        <ele>275</ele>
        <time>2011-03-24T06:07:54.000Z</time>
      </trkpt>
      <trkpt lat="43.59547" lon="2.07975">
        <ele>266</ele>
        <time>2011-03-24T06:07:54.000Z</time>
      </trkpt>
      <trkpt lat="43.59562" lon="2.07995">
        <ele>261</ele>
        <time>2011-03-24T06:07:54.000Z</time>
      </trkpt>
      <trkpt lat="43.59569" lon="2.08113">
        <ele>249</ele>
        <time>2011-03-24T06:07:54.000Z</time>
      </trkpt>
      <trkpt lat="43.59564" lon="2.08159">
        <ele>245</ele>
        <time>2011-03-24T06:07:54.000Z</time>
      </trkpt>
      <trkpt lat="43.59461" lon="2.08311">
        <ele>231</ele>
        <time>2011-03-24T06:07:54.000Z</time>
      </trkpt>
      <trkpt lat="43.59446" lon="2.08432">
        <ele>222</ele>
        <time>2011-03-24T06:07:54.000Z</time>
      </trkpt>
      <trkpt lat="43.59431" lon="2.08629">
        <ele>217</ele>
        <time>2011-03-24T06:07:54.000Z</time>
      </trkpt>
      <trkpt lat="43.59489" lon="2.08685">
        <ele>218</ele>
        <time>2011-03-24T06:07:54.000Z</time>
      </trkpt>
      <trkpt lat="43.59564" lon="2.08836">
        <ele>220</ele>
        <time>2011-03-24T06:07:54.000Z</time>
      </trkpt>
      <trkpt lat="43.59568" lon="2.08919">
        <ele>217</ele>
        <time>2011-03-24T06:07:54.000Z</time>
      </trkpt>
      <trkpt lat="43.59652" lon="2.09037">
        <ele>204</ele>
        <time>2011-03-24T06:07:54.000Z</time>
      </trkpt>
      <trkpt lat="43.59735" lon="2.09203">
        <ele>191</ele>
        <time>2011-03-24T06:07:54.000Z</time>
      </trkpt>
      <trkpt lat="43.59675" lon="2.09361">
        <ele>194</ele>
        <time>2011-03-24T06:07:54.000Z</time>
      </trkpt>
      <trkpt lat="43.59707" lon="2.09485">
        <ele>188</ele>
        <time>2011-03-24T06:07:54.000Z</time>
      </trkpt>
      <trkpt lat="43.59714" lon="2.09574">
        <ele>185</ele>
        <time>2011-03-24T06:07:54.000Z</time>
      </trkpt>
      <trkpt lat="43.59705" lon="2.09627">
        <ele>184</ele>
        <time>2011-03-24T06:07:54.000Z</time>
      </trkpt>
      <trkpt lat="43.59651" lon="2.09686">
        <ele>187</ele>
        <time>2011-03-24T06:07:54.000Z</time>
      </trkpt>
      <trkpt lat="43.59599" lon="2.0972">
        <ele>191</ele>
        <time>2011-03-24T06:07:54.000Z</time>
      </trkpt>
      <trkpt lat="43.59521" lon="2.0981">
        <ele>196</ele>
        <time>2011-03-24T06:07:54.000Z</time>
      </trkpt>
      <trkpt lat="43.59436" lon="2.09897">
        <ele>195</ele>
        <time>2011-03-24T06:07:54.000Z</time>
      </trkpt>
      <trkpt lat="43.5938" lon="2.09968">
        <ele>196</ele>
        <time>2011-03-24T06:07:54.000Z</time>
      </trkpt>
      <trkpt lat="43.59353" lon="2.09907">
        <ele>196</ele>
        <time>2011-03-24T06:07:54.000Z</time>
      </trkpt>
      <trkpt lat="43.59285" lon="2.09814">
        <ele>203</ele>
        <time>2011-03-24T06:07:54.000Z</time>
      </trkpt>
      <trkpt lat="43.59229" lon="2.09855">
        <ele>201</ele>
        <time>2011-03-24T06:07:54.000Z</time>
      </trkpt>
      <trkpt lat="43.59171" lon="2.10009">
        <ele>193</ele>
        <time>2011-03-24T06:07:54.000Z</time>
      </trkpt>
      <trkpt lat="43.59104" lon="2.10099">
        <ele>190</ele>
        <time>2011-03-24T06:07:54.000Z</time>
      </trkpt>
      <trkpt lat="43.59048" lon="2.10152">
        <ele>189</ele>
        <time>2011-03-24T06:07:54.000Z</time>
      </trkpt>
      <trkpt lat="43.5901" lon="2.10233">
        <ele>190</ele>
        <time>2011-03-24T06:07:54.000Z</time>
      </trkpt>
      <trkpt lat="43.58958" lon="2.10391">
        <ele>191</ele>
        <time>2011-03-24T06:07:54.000Z</time>
      </trkpt>
      <trkpt lat="43.58911" lon="2.10493">
        <ele>191</ele>
        <time>2011-03-24T06:07:54.000Z</time>
      </trkpt>
      <trkpt lat="43.58817" lon="2.10626">
        <ele>190</ele>
        <time>2011-03-24T06:07:54.000Z</time>
      </trkpt>
      <trkpt lat="43.58923" lon="2.10774">
        <ele>167</ele>
        <time>2011-03-24T06:07:54.000Z</time>
      </trkpt>
      <trkpt lat="43.58993" lon="2.10916">
        <ele>163</ele>
        <time>2011-03-24T06:07:54.000Z</time>
      </trkpt>
      <trkpt lat="43.58921" lon="2.10987">
        <ele>162</ele>
        <time>2011-03-24T06:07:54.000Z</time>
      </trkpt>
    </trkseg>
  </trk>
</gpx>